Regional Weather Roundup
Issued by NWS

Home | Current Version | Previous Version | Graphics & Text | Print | Product List | Glossary On
Versions: 1 2 3 4 5 6 7 8 9 10 11 12 13 14 15 16 17 18 19 20 21 22 23 24 25 26 27 28 29 30 31 32 33 34 35 36 37 38 39 40 41 42 43 44 45 46 47 48 49 50
000
ASUS43 KBIS 241410
RWRND
NORTH DAKOTA REGIONAL WEATHER ROUNDUP
NATIONAL WEATHER SERVICE EASTERN NORTH DAKOTA/GRAND FORKS ND
900 AM CDT THU MAY 24 2018

  NOTE: "FAIR" INDICATES FEW OR NO CLOUDS BELOW 12,000 FEET WITH NO
  SIGNIFICANT WEATHER AND/OR OBSTRUCTIONS TO VISIBILITY.

NDZ001>003-009>011-017-241500-
...NORTHWEST NORTH DAKOTA...

CITY           SKY/WX    TMP DP  RH WIND       PRES   REMARKS
WILLISTON      FAIR      62  58  86 S8        29.78S
MINOT          FAIR      71  61  70 S6        29.76F
MINOT AFB      FAIR      69  65  86 S3        29.75F
$$

NDZ018>021-031>035-040>046-241500-
...SOUTHWEST NORTH DAKOTA...

CITY           SKY/WX    TMP DP  RH WIND       PRES   REMARKS
BISMARCK       FAIR      69  58  67 SW7       29.83F
DICKINSON        N/A     66  52  60 W13       29.81S
GARRISON         N/A     69  57  65 S13       29.78F
HETTINGER      FAIR      64  51  62 W13       29.86S
$$

NDZ004>008-012>016-024-026-027-054-241500-
...NORTHEAST NORTH DAKOTA...

CITY           SKY/WX    TMP DP  RH WIND       PRES   REMARKS
GRAND FORKS    PTSUNNY   72  67  84 S13       29.81F
GRAND FORKS AF FAIR      72  69  89 S13       29.81F
DEVILS LAKE    FAIR      69  63  81 SE8       29.81F
$$

NDZ022-023-025-028>030-036>039-047>053-241500-
...SOUTHEAST NORTH DAKOTA...

CITY           SKY/WX    TMP DP  RH WIND       PRES   REMARKS
JAMESTOWN      FAIR      73  61  65 S13       29.83S
FARGO          FAIR      76  64  66 S15       29.85R
WAHPETON       FAIR      72  61  68 S14G22    29.87S
$$



USA.gov is the U.S. government's official web portal to all federal, state and local government web resources and services.